QPF
0.00 0.00 0.00 0.00 0.00 0.00 0.01 0.00 0.01 0.01 0.01 0.01 0.01 0.01 0.01 0.01 0.03 0.05 0.06 0.09 0.07 0.03 0.05 0.07 0.09 0.10 0.13 0.13 0.08 0.05 0.06 0.05 0.05 0.04 0.04 0.04 0.04 0.05 0.04 0.03 0.04 0.04 0.04 0.06
0.00 0.00 0.00 0.00 0.00 0.00 0.01 0.01 0.01 0.01 0.01 0.01 0.01 0.01 0.01 0.01 0.01 0.02 0.02 0.03 0.03 0.03 0.03 0.03 0.04 0.09 0.14 0.10 0.07 0.05 0.05 0.05 0.06 0.05 0.06 0.06 0.06 0.06 0.05 0.04 0.05 0.05 0.04 0.04
0.00 0.00 0.00 0.00 0.00 0.00 0.00 0.00 0.01 0.01 0.01 0.01 0.01 0.01 0.01 0.01 0.01 0.01 0.02 0.03 0.03 0.02 0.02 0.02 0.02 0.05 0.06 0.05 0.06 0.06 0.05 0.05 0.08 0.09 0.08 0.06 0.05 0.04 0.04 0.04 0.05 0.04 0.03 0.04
0.00 0.01 0.01 0.01 0.00 0.00 0.00 0.00 0.01 0.01 0.01 0.01 0.01 0.01 0.01 0.01 0.01 0.01 0.02 0.02 0.02 0.02 0.03 0.03 0.02 0.03 0.04 0.05 0.06 0.06 0.05 0.05 0.07 0.08 0.07 0.08 0.08 0.07 0.06 0.09 0.07 0.05 0.03 0.03
0.00 0.01 0.01 0.01 0.00 0.00 0.00 0.01 0.01 0.00 0.00 0.01 0.01 0.00 0.00 0.01 0.01 0.02 0.02 0.01 0.02 0.02 0.03 0.03 0.04 0.05 0.08 0.07 0.06 0.08 0.06 0.06 0.07 0.09 0.10 0.09 0.08 0.07 0.07 0.09 0.08 0.06 0.05 0.03
0.00 0.00 0.01 0.00 0.00 0.00 0.00 0.00 0.00 0.01 0.01 0.01 0.01 0.01 0.01 0.01 0.01 0.01 0.02 0.01 0.02 0.02 0.02 0.03 0.07 0.07 0.07 0.08 0.07 0.07 0.06 0.06 0.05 0.06 0.08 0.07 0.08 0.08 0.07 0.07 0.07 0.07 0.05 0.03
0.00 0.00 0.00 0.01 0.01 0.00 0.00 0.00 0.01 0.01 0.01 0.02 0.02 0.02 0.01 0.01 0.01 0.01 0.01 0.02 0.03 0.02 0.02 0.03 0.04 0.05 0.05 0.06 0.07 0.08 0.08 0.07 0.05 0.05 0.08 0.10 0.11 0.12 0.11 0.08 0.05 0.05 0.04 0.03
0.00 0.00 0.00 0.00 0.01 0.00 0.00 0.00 0.01 0.01 0.00 0.01 0.00 0.01 0.01 0.01 0.01 0.01 0.02 0.02 0.03 0.03 0.03 0.04 0.04 0.04 0.04 0.06 0.08 0.09 0.09 0.09 0.07 0.08 0.12 0.14 0.12 0.09 0.08 0.07 0.05 0.04 0.04 0.03
0.00 0.00 0.00 0.00 0.00 0.00 0.00 0.00 0.01 0.01 0.01 0.00 0.00 0.01 0.01 0.01 0.01 0.01 0.03 0.02 0.02 0.03 0.04 0.04 0.04 0.04 0.04 0.06 0.07 0.07 0.08 0.09 0.09 0.12 0.13 0.10 0.07 0.06 0.05 0.04 0.04 0.03 0.04 0.04
0.00 0.00 0.00 0.00 0.00 0.00 0.00 0.00 0.01 0.01 0.01 0.00 0.00 0.01 0.02 0.01 0.00 0.01 0.03 0.03 0.02 0.02 0.03 0.02 0.03 0.04 0.05 0.05 0.06 0.06 0.07 0.09 0.09 0.08 0.08 0.07 0.07 0.05 0.03 0.03 0.03 0.03 0.03 0.03
0.00 0.00 0.00 0.00 0.00 0.00 0.00 0.00 0.01 0.01 0.01 0.00 0.00 0.01 0.02 0.01 0.01 0.01 0.01 0.02 0.02 0.03 0.03 0.02 0.01 0.02 0.03 0.04 0.04 0.03 0.04 0.06 0.08 0.07 0.07 0.07 0.05 0.03 0.03 0.03 0.03 0.02 0.03 0.03
0.00 0.00 0.00 0.00 0.00 0.00 0.00 0.00 0.01 0.01 0.01 0.00 0.00 0.02 0.02 0.01 0.01 0.01 0.01 0.01 0.01 0.02 0.03 0.02 0.01 0.01 0.01 0.02 0.02 0.02 0.03 0.04 0.04 0.05 0.06 0.05 0.04 0.04 0.03 0.02 0.02 0.02 0.02 0.03
0.01 0.01 0.01 0.01 0.00 0.01 0.01 0.01 0.01 0.01 0.00 0.00 0.01 0.04 0.03 0.01 0.01 0.01 0.01 0.01 0.01 0.01 0.02 0.02 0.01 0.01 0.01 0.01 0.01 0.02 0.02 0.03 0.03 0.04 0.06 0.06 0.06 0.04 0.02 0.01 0.02 0.02 0.02 0.03
0.01 0.01 0.01 0.01 0.01 0.01 0.01 0.01 0.01 0.01 0.01 0.01 0.01 0.02 0.02 0.01 0.01 0.01 0.01 0.01 0.02 0.02 0.02 0.02 0.02 0.01 0.01 0.01 0.02 0.02 0.01 0.02 0.02 0.03 0.05 0.05 0.05 0.04 0.02 0.02 0.02 0.02 0.02 0.02
0.01 0.01 0.02 0.01 0.02 0.01 0.01 0.01 0.01 0.01 0.01 0.01 0.01 0.01 0.02 0.02 0.02 0.01 0.01 0.02 0.02 0.01 0.01 0.02 0.02 0.01 0.01 0.01 0.02 0.02 0.02 0.02 0.02 0.03 0.04 0.05 0.05 0.05 0.03 0.02 0.02 0.02 0.01 0.02
0.00 0.01 0.02 0.02 0.01 0.01 0.01 0.01 0.01 0.01 0.01 0.00 0.01 0.01 0.02 0.03 0.02 0.02 0.02 0.02 0.02 0.02 0.02 0.02 0.02 0.02 0.02 0.03 0.02 0.02 0.02 0.02 0.03 0.03 0.04 0.04 0.04 0.04 0.03 0.02 0.02 0.01 0.02 0.02
0.01 0.01 0.01 0.01 0.01 0.02 0.02 0.02 0.01 0.01 0.01 0.01 0.01 0.01 0.01 0.02 0.02 0.02 0.02 0.02 0.02 0.02 0.01 0.01 0.02 0.03 0.03 0.03 0.02 0.02 0.02 0.02 0.03 0.02 0.03 0.04 0.04 0.03 0.03 0.03 0.02 0.02 0.02 0.02
0.01 0.01 0.01 0.01 0.01 0.01 0.01 0.01 0.01 0.01 0.01 0.01 0.01 0.01 0.01 0.02 0.02 0.03 0.03 0.02 0.01 0.01 0.01 0.01 0.02 0.02 0.04 0.04 0.03 0.03 0.02 0.02 0.02 0.02 0.02 0.03 0.03 0.03 0.03 0.03 0.03 0.03 0.02 0.02
0.00 0.01 0.01 0.02 0.01 0.01 0.00 0.01 0.01 0.01 0.01 0.01 0.01 0.01 0.02 0.02 0.03 0.04 0.03 0.02 0.01 0.02 0.01 0.01 0.02 0.02 0.03 0.02 0.02 0.02 0.02 0.02 0.03 0.03 0.03 0.03 0.04 0.04 0.03 0.03 0.03 0.03 0.02 0.01
0.01 0.01 0.01 0.02 0.04 0.03 0.02 0.01 0.01 0.02 0.02 0.01 0.01 0.02 0.02 0.02 0.03 0.03 0.03 0.03 0.02 0.02 0.01 0.01 0.01 0.02 0.02 0.02 0.02 0.03 0.03 0.03 0.03 0.04 0.05 0.06 0.05 0.04 0.03 0.03 0.03 0.03 0.02 0.01
0.01 0.01 0.02 0.03 0.04 0.04 0.03 0.02 0.02 0.02 0.02 0.02 0.02 0.03 0.03 0.03 0.02 0.01 0.01 0.02 0.02 0.03 0.02 0.01 0.01 0.01 0.02 0.02 0.02 0.02 0.02 0.02 0.02 0.03 0.04 0.05 0.06 0.06 0.04 0.03 0.02 0.02 0.01 0.02
0.01 0.02 0.03 0.03 0.02 0.03 0.04 0.05 0.03 0.02 0.01 0.02 0.02 0.03 0.03 0.03 0.03 0.02 0.02 0.01 0.02 0.03 0.03 0.02 0.02 0.02 0.02 0.01 0.01 0.02 0.01 0.01 0.01 0.02 0.02 0.03 0.04 0.06 0.06 0.03 0.01 0.01 0.01 0.01
0.01 0.01 0.02 0.02 0.02 0.02 0.03 0.06 0.06 0.04 0.03 0.03 0.04 0.04 0.04 0.03 0.03 0.02 0.02 0.01 0.01 0.02 0.04 0.04 0.04 0.03 0.02 0.02 0.01 0.01 0.01 0.02 0.02 0.02 0.03 0.03 0.04 0.05 0.07 0.04 0.01 0.01 0.02 0.02
0.02 0.02 0.02 0.03 0.04 0.04 0.04 0.04 0.04 0.05 0.04 0.03 0.04 0.04 0.03 0.02 0.01 0.01 0.01 0.01 0.01 0.02 0.05 0.07 0.05 0.04 0.03 0.02 0.02 0.02 0.02 0.02 0.03 0.03 0.03 0.03 0.04 0.04 0.05 0.06 0.02 0.02 0.03 0.03
0.03 0.03 0.03 0.03 0.04 0.04 0.05 0.04 0.03 0.03 0.04 0.04 0.05 0.04 0.03 0.02 0.01 0.01 0.01 0.02 0.02 0.02 0.04 0.07 0.07 0.06 0.05 0.03 0.02 0.02 0.02 0.02 0.03 0.03 0.02 0.02 0.03 0.04 0.04 0.05 0.03 0.02 0.02 0.04
0.02 0.02 0.02 0.02 0.02 0.03 0.03 0.03 0.03 0.04 0.04 0.03 0.03 0.03 0.03 0.02 0.02 0.01 0.01 0.01 0.01 0.02 0.04 0.07 0.08 0.07 0.06 0.05 0.04 0.04 0.03 0.02 0.02 0.02 0.02 0.02 0.03 0.04 0.04 0.05 0.04 0.04 0.04 0.05
MSLP
1006.97 1007.75 1008.39 1008.90 1009.29 1009.58 1009.81 1010.01 1010.17 1010.27 1010.29 1010.18 1009.91 1009.49 1008.92 1008.26 1007.56 1006.92 1006.38 1006.00 1005.79 1005.73 1005.80 1005.94 1006.11 1006.26 1006.38 1006.47 1006.56 1006.69 1006.89 1007.19 1007.59 1008.08 1008.64 1009.23 1009.80 1010.32 1010.77 1011.15 1011.46 1011.73 1011.98 1012.25
1006.83 1007.47 1007.99 1008.40 1008.74 1009.05 1009.36 1009.68 1009.97 1010.20 1010.31 1010.25 1009.98 1009.50 1008.84 1008.08 1007.29 1006.57 1005.99 1005.61 1005.43 1005.44 1005.57 1005.78 1005.99 1006.16 1006.27 1006.35 1006.42 1006.53 1006.73 1007.03 1007.46 1008.00 1008.61 1009.24 1009.85 1010.39 1010.84 1011.21 1011.50 1011.75 1011.99 1012.23
1006.48 1006.99 1007.40 1007.75 1008.08 1008.44 1008.86 1009.32 1009.77 1010.15 1010.36 1010.35 1010.07 1009.53 1008.78 1007.89 1006.99 1006.18 1005.55 1005.15 1004.99 1005.05 1005.25 1005.51 1005.78 1005.98 1006.12 1006.20 1006.26 1006.37 1006.56 1006.89 1007.35 1007.92 1008.58 1009.27 1009.92 1010.50 1010.99 1011.37 1011.67 1011.91 1012.13 1012.37
1005.94 1006.34 1006.66 1006.97 1007.32 1007.77 1008.33 1008.96 1009.59 1010.12 1010.45 1010.50 1010.22 1009.62 1008.77 1007.76 1006.73 1005.82 1005.12 1004.69 1004.54 1004.62 1004.87 1005.20 1005.51 1005.77 1005.94 1006.04 1006.11 1006.22 1006.43 1006.76 1007.25 1007.86 1008.57 1009.30 1010.01 1010.64 1011.17 1011.58 1011.91 1012.16 1012.38 1012.60
1005.25 1005.55 1005.82 1006.12 1006.52 1007.09 1007.81 1008.63 1009.44 1010.14 1010.59 1010.70 1010.42 1009.78 1008.83 1007.71 1006.57 1005.56 1004.78 1004.30 1004.13 1004.23 1004.51 1004.89 1005.26 1005.56 1005.78 1005.91 1006.01 1006.14 1006.36 1006.71 1007.21 1007.85 1008.58 1009.35 1010.11 1010.79 1011.36 1011.81 1012.17 1012.44 1012.67 1012.87
1004.46 1004.70 1004.92 1005.24 1005.72 1006.41 1007.29 1008.30 1009.29 1010.15 1010.71 1010.89 1010.64 1009.97 1008.96 1007.75 1006.52 1005.41 1004.56 1004.03 1003.83 1003.93 1004.24 1004.65 1005.07 1005.43 1005.70 1005.88 1006.02 1006.17 1006.41 1006.77 1007.28 1007.93 1008.67 1009.46 1010.23 1010.94 1011.54 1012.03 1012.41 1012.70 1012.93 1013.12
1003.64 1003.82 1004.03 1004.38 1004.94 1005.75 1006.78 1007.94 1009.09 1010.08 1010.75 1011.00 1010.78 1010.11 1009.08 1007.83 1006.54 1005.38 1004.47 1003.90 1003.67 1003.77 1004.09 1004.53 1004.99 1005.41 1005.73 1005.97 1006.16 1006.35 1006.62 1006.99 1007.50 1008.13 1008.86 1009.63 1010.40 1011.10 1011.71 1012.20 1012.59 1012.89 1013.11 1013.29
1002.85 1002.99 1003.19 1003.57 1004.19 1005.09 1006.23 1007.50 1008.76 1009.85 1010.61 1010.93 1010.75 1010.12 1009.10 1007.86 1006.57 1005.39 1004.47 1003.89 1003.65 1003.74 1004.07 1004.54 1005.04 1005.51 1005.89 1006.20 1006.45 1006.69 1006.99 1007.38 1007.88 1008.49 1009.18 1009.91 1010.63 1011.29 1011.86 1012.33 1012.70 1012.98 1013.19 1013.35
1002.14 1002.23 1002.43 1002.83 1003.49 1004.43 1005.62 1006.95 1008.26 1009.40 1010.21 1010.58 1010.47 1009.90 1008.95 1007.77 1006.54 1005.41 1004.52 1003.95 1003.73 1003.82 1004.16 1004.64 1005.18 1005.70 1006.15 1006.53 1006.85 1007.16 1007.50 1007.90 1008.39 1008.97 1009.60 1010.26 1010.90 1011.49 1011.99 1012.41 1012.72 1012.96 1013.14 1013.27
1001.53 1001.60 1001.78 1002.17 1002.84 1003.78 1004.96 1006.27 1007.57 1008.71 1009.53 1009.94 1009.89 1009.40 1008.57 1007.51 1006.39 1005.37 1004.57 1004.05 1003.86 1003.97 1004.31 1004.81 1005.37 1005.93 1006.44 1006.89 1007.29 1007.67 1008.06 1008.49 1008.97 1009.51 1010.07 1010.65 1011.19 1011.68 1012.09 1012.41 1012.66 1012.84 1012.98 1013.08
1001.07 1001.11 1001.28 1001.64 1002.27 1003.15 1004.26 1005.49 1006.71 1007.78 1008.58 1009.00 1009.02 1008.64 1007.96 1007.07 1006.13 1005.26 1004.58 1004.16 1004.02 1004.15 1004.50 1005.00 1005.57 1006.15 1006.71 1007.22 1007.69 1008.13 1008.57 1009.03 1009.51 1010.01 1010.51 1010.99 1011.42 1011.80 1012.10 1012.33 1012.50 1012.62 1012.71 1012.79
1000.77 1000.79 1000.93 1001.26 1001.81 1002.60 1003.58 1004.67 1005.76 1006.72 1007.45 1007.87 1007.95 1007.70 1007.19 1006.50 1005.77 1005.09 1004.58 1004.27 1004.20 1004.36 1004.70 1005.18 1005.73 1006.31 1006.89 1007.43 1007.95 1008.45 1008.94 1009.43 1009.91 1010.37 1010.81 1011.20 1011.53 1011.80 1012.00 1012.14 1012.24 1012.31 1012.37 1012.44
1000.63 1000.64 1000.76 1001.03 1001.50 1002.16 1002.99 1003.90 1004.81 1005.63 1006.27 1006.67 1006.79 1006.67 1006.35 1005.88 1005.39 1004.93 1004.59 1004.41 1004.42 1004.59 1004.92 1005.36 1005.87 1006.41 1006.97 1007.52 1008.06 1008.59 1009.10 1009.60 1010.08 1010.51 1010.90 1011.21 1011.46 1011.64 1011.75 1011.83 1011.87 1011.92 1011.97 1012.06
1000.66 1000.67 1000.77 1000.99 1001.37 1001.89 1002.53 1003.24 1003.96 1004.61 1005.14 1005.51 1005.68 1005.69 1005.55 1005.32 1005.06 1004.83 1004.68 1004.63 1004.71 1004.90 1005.19 1005.57 1006.00 1006.47 1006.97 1007.48 1008.01 1008.53 1009.05 1009.55 1010.00 1010.41 1010.75 1011.00 1011.19 1011.30 1011.36 1011.39 1011.42 1011.46 1011.54 1011.65
1000.84 1000.88 1000.97 1001.14 1001.42 1001.79 1002.25 1002.76 1003.27 1003.76 1004.17 1004.50 1004.71 1004.83 1004.88 1004.87 1004.85 1004.84 1004.87 1004.96 1005.10 1005.30 1005.55 1005.84 1006.18 1006.55 1006.96 1007.40 1007.87 1008.35 1008.84 1009.31 1009.73 1010.10 1010.39 1010.60 1010.74 1010.80 1010.83 1010.85 1010.88 1010.95 1011.07 1011.24
1001.17 1001.23 1001.33 1001.46 1001.65 1001.89 1002.17 1002.48 1002.80 1003.12 1003.42 1003.70 1003.95 1004.18 1004.39 1004.59 1004.79 1004.99 1005.20 1005.40 1005.61 1005.81 1006.02 1006.23 1006.46 1006.71 1007.01 1007.35 1007.73 1008.14 1008.57 1008.99 1009.37 1009.69 1009.94 1010.10 1010.19 1010.23 1010.25 1010.27 1010.32 1010.43 1010.60 1010.83
1001.63 1001.73 1001.84 1001.94 1002.05 1002.16 1002.28 1002.41 1002.55 1002.72 1002.91 1003.15 1003.42 1003.74 1004.09 1004.48 1004.87 1005.26 1005.63 1005.95 1006.22 1006.43 1006.60 1006.74 1006.87 1007.01 1007.19 1007.43 1007.71 1008.04 1008.39 1008.74 1009.06 1009.32 1009.51 1009.62 1009.68 1009.69 1009.69 1009.71 1009.78 1009.92 1010.14 1010.43
1002.21 1002.36 1002.48 1002.56 1002.60 1002.59 1002.57 1002.53 1002.52 1002.55 1002.65 1002.84 1003.12 1003.51 1003.98 1004.51 1005.07 1005.62 1006.12 1006.55 1006.89 1007.13 1007.28 1007.37 1007.43 1007.49 1007.58 1007.72 1007.91 1008.15 1008.42 1008.69 1008.93 1009.12 1009.24 1009.31 1009.31 1009.28 1009.26 1009.26 1009.33 1009.48 1009.71 1010.03
1002.92 1003.13 1003.26 1003.31 1003.28 1003.18 1003.03 1002.85 1002.69 1002.60 1002.61 1002.75 1003.03 1003.45 1004.00 1004.64 1005.33 1006.00 1006.63 1007.15 1007.56 1007.85 1008.02 1008.10 1008.13 1008.15 1008.18 1008.25 1008.37 1008.54 1008.73 1008.92 1009.09 1009.20 1009.26 1009.24 1009.18 1009.10 1009.02 1008.98 1009.01 1009.13 1009.35 1009.65
1003.78 1004.02 1004.17 1004.19 1004.10 1003.91 1003.64 1003.34 1003.07 1002.87 1002.79 1002.87 1003.12 1003.56 1004.15 1004.85 1005.62 1006.39 1007.10 1007.71 1008.20 1008.55 1008.77 1008.88 1008.92 1008.94 1008.96 1009.00 1009.09 1009.21 1009.34 1009.47 1009.56 1009.60 1009.57 1009.48 1009.34 1009.17 1009.01 1008.90 1008.85 1008.90 1009.05 1009.30
1004.80 1005.07 1005.21 1005.21 1005.06 1004.79 1004.42 1004.02 1003.64 1003.35 1003.18 1003.20 1003.41 1003.83 1004.41 1005.14 1005.94 1006.76 1007.54 1008.22 1008.78 1009.20 1009.48 1009.66 1009.76 1009.82 1009.86 1009.92 1010.01 1010.10 1010.20 1010.28 1010.31 1010.28 1010.17 1009.99 1009.75 1009.48 1009.23 1009.01 1008.86 1008.80 1008.85 1009.01
1005.98 1006.27 1006.39 1006.35 1006.15 1005.81 1005.37 1004.89 1004.42 1004.04 1003.81 1003.75 1003.91 1004.27 1004.82 1005.52 1006.32 1007.15 1007.95 1008.67 1009.29 1009.78 1010.15 1010.41 1010.59 1010.72 1010.83 1010.93 1011.03 1011.13 1011.21 1011.25 1011.23 1011.13 1010.95 1010.68 1010.35 1009.99 1009.61 1009.28 1009.01 1008.83 1008.75 1008.79
1007.33 1007.60 1007.70 1007.62 1007.37 1006.97 1006.47 1005.93 1005.40 1004.96 1004.65 1004.53 1004.61 1004.90 1005.39 1006.03 1006.78 1007.58 1008.38 1009.12 1009.78 1010.33 1010.77 1011.12 1011.39 1011.60 1011.77 1011.93 1012.06 1012.17 1012.24 1012.26 1012.19 1012.04 1011.79 1011.45 1011.04 1010.58 1010.11 1009.66 1009.27 1008.96 1008.76 1008.67
1008.79 1009.03 1009.09 1008.97 1008.67 1008.23 1007.70 1007.11 1006.55 1006.06 1005.70 1005.51 1005.51 1005.72 1006.12 1006.69 1007.37 1008.11 1008.87 1009.61 1010.28 1010.87 1011.38 1011.79 1012.14 1012.42 1012.66 1012.85 1013.01 1013.13 1013.19 1013.18 1013.08 1012.88 1012.58 1012.19 1011.71 1011.18 1010.63 1010.09 1009.60 1009.19 1008.87 1008.66
1010.31 1010.49 1010.50 1010.33 1010.00 1009.53 1008.98 1008.38 1007.79 1007.28 1006.89 1006.65 1006.59 1006.72 1007.03 1007.50 1008.09 1008.76 1009.47 1010.17 1010.84 1011.45 1011.99 1012.45 1012.85 1013.18 1013.45 1013.67 1013.83 1013.94 1013.98 1013.93 1013.80 1013.56 1013.23 1012.79 1012.28 1011.72 1011.12 1010.53 1009.97 1009.48 1009.07 1008.77
1011.79 1011.90 1011.84 1011.62 1011.26 1010.78 1010.23 1009.64 1009.06 1008.55 1008.14 1007.87 1007.76 1007.82 1008.05 1008.43 1008.93 1009.53 1010.17 1010.83 1011.48 1012.09 1012.64 1013.12 1013.53 1013.87 1014.15 1014.35 1014.49 1014.57 1014.56 1014.47 1014.30 1014.03 1013.67 1013.23 1012.71 1012.14 1011.53 1010.93 1010.35 1009.81 1009.35 1008.98
Thickness
5750 5737 5729 5735 5740 5743 5739 5734 5731 5741 5755 5750 5745 5746 5752 5759 5760 5759 5760 5761 5761 5762 5764 5763 5762 5760 5757 5753 5750 5748 5745 5743 5741 5737 5733 5729 5728 5728 5728 5728 5727 5727 5726 5725
5734 5730 5743 5747 5745 5741 5736 5729 5729 5740 5752 5748 5741 5741 5749 5754 5754 5756 5757 5758 5758 5758 5758 5758 5758 5756 5754 5750 5748 5745 5743 5741 5738 5735 5731 5728 5727 5726 5726 5725 5725 5723 5722 5722
5731 5741 5751 5744 5738 5734 5732 5728 5730 5733 5743 5745 5739 5731 5739 5748 5753 5755 5757 5757 5757 5756 5754 5753 5753 5752 5750 5747 5744 5743 5741 5739 5736 5733 5729 5726 5723 5722 5720 5720 5720 5720 5719 5718
5733 5744 5747 5741 5737 5736 5726 5741 5739 5735 5724 5716 5727 5708 5728 5736 5741 5747 5750 5752 5753 5754 5753 5751 5750 5748 5747 5746 5743 5741 5738 5736 5733 5731 5727 5723 5720 5718 5718 5717 5717 5716 5716 5715
5733 5742 5741 5736 5740 5741 5736 5744 5738 5731 5719 5711 5714 5706 5715 5730 5731 5739 5745 5749 5751 5751 5750 5748 5747 5746 5744 5742 5738 5737 5735 5732 5730 5728 5726 5722 5719 5717 5715 5715 5713 5712 5712 5712
5737 5747 5746 5745 5749 5748 5743 5735 5725 5713 5705 5694 5707 5701 5707 5718 5729 5735 5741 5745 5747 5747 5747 5745 5744 5743 5740 5738 5736 5734 5732 5729 5727 5726 5724 5721 5717 5715 5713 5712 5710 5709 5709 5709
5726 5736 5745 5748 5738 5739 5733 5712 5692 5690 5681 5686 5705 5701 5706 5727 5734 5736 5737 5740 5743 5743 5741 5739 5738 5737 5736 5734 5732 5730 5727 5725 5724 5723 5720 5719 5717 5715 5713 5711 5709 5707 5706 5706
5708 5711 5735 5742 5736 5728 5723 5713 5690 5681 5677 5685 5698 5695 5711 5730 5735 5736 5736 5736 5737 5736 5735 5734 5734 5734 5733 5731 5729 5727 5725 5722 5720 5718 5717 5716 5715 5713 5712 5710 5708 5706 5706 5706
5706 5710 5736 5743 5744 5735 5717 5708 5710 5689 5684 5678 5684 5698 5713 5727 5727 5728 5728 5728 5728 5729 5730 5728 5728 5728 5728 5727 5725 5724 5722 5719 5717 5716 5714 5713 5712 5710 5709 5708 5707 5706 5706 5706
5717 5709 5726 5736 5738 5732 5726 5711 5693 5682 5671 5669 5682 5690 5697 5712 5715 5718 5719 5720 5722 5723 5723 5722 5721 5721 5721 5721 5721 5719 5717 5715 5713 5712 5711 5711 5710 5708 5706 5705 5704 5704 5704 5704
5718 5706 5712 5719 5716 5713 5712 5704 5692 5680 5679 5669 5666 5682 5711 5713 5713 5712 5713 5715 5716 5716 5716 5717 5715 5715 5716 5715 5714 5713 5711 5710 5708 5707 5706 5706 5706 5705 5703 5702 5701 5701 5701 5701
5709 5697 5691 5704 5718 5723 5715 5706 5692 5682 5677 5674 5670 5682 5714 5713 5712 5710 5709 5710 5711 5710 5711 5711 5710 5709 5709 5708 5708 5706 5706 5705 5704 5703 5702 5701 5701 5700 5699 5699 5699 5699 5698 5698
5704 5690 5679 5686 5695 5705 5704 5702 5696 5686 5674 5667 5666 5681 5705 5706 5704 5704 5703 5704 5704 5703 5703 5703 5703 5702 5702 5702 5702 5701 5701 5700 5699 5698 5697 5695 5695 5695 5695 5695 5695 5695 5695 5694
5704 5683 5679 5676 5683 5691 5692 5695 5691 5683 5670 5667 5674 5683 5693 5695 5695 5696 5696 5697 5697 5697 5696 5695 5695 5695 5695 5695 5695 5695 5695 5695 5694 5693 5691 5690 5690 5690 5691 5691 5690 5690 5690 5689
5692 5677 5680 5684 5691 5691 5689 5688 5687 5683 5681 5676 5680 5681 5688 5690 5690 5690 5690 5690 5690 5690 5690 5690 5689 5689 5689 5689 5689 5689 5688 5688 5688 5687 5686 5686 5685 5685 5686 5685 5685 5685 5685 5685
5676 5671 5673 5675 5684 5683 5678 5682 5683 5682 5682 5680 5680 5679 5687 5687 5686 5684 5683 5683 5683 5683 5684 5683 5683 5683 5683 5683 5683 5683 5682 5682 5682 5681 5681 5681 5680 5680 5680 5681 5681 5681 5681 5681
5660 5660 5658 5657 5669 5672 5662 5672 5675 5675 5676 5676 5672 5676 5680 5678 5678 5677 5677 5677 5677 5677 5677 5677 5677 5676 5676 5676 5677 5676 5676 5676 5675 5674 5674 5674 5674 5674 5675 5675 5675 5676 5676 5676
5652 5647 5641 5644 5652 5643 5658 5672 5674 5670 5668 5669 5671 5672 5672 5673 5672 5672 5673 5671 5671 5671 5671 5671 5671 5670 5671 5671 5671 5671 5670 5669 5668 5668 5668 5669 5669 5669 5669 5669 5669 5670 5671 5671
5646 5641 5631 5628 5631 5638 5651 5659 5659 5657 5654 5659 5661 5662 5663 5665 5664 5663 5666 5666 5665 5665 5665 5665 5665 5665 5665 5665 5664 5663 5662 5661 5661 5661 5662 5663 5663 5663 5663 5663 5663 5664 5665 5666
5633 5632 5625 5621 5625 5625 5639 5650 5655 5651 5642 5651 5652 5652 5652 5654 5649 5652 5658 5658 5658 5658 5658 5658 5658 5658 5657 5658 5657 5656 5655 5654 5654 5655 5656 5657 5657 5658 5657 5657 5658 5659 5660 5661
5616 5614 5612 5611 5613 5620 5631 5639 5645 5632 5634 5643 5644 5644 5643 5643 5645 5648 5650 5650 5650 5650 5651 5651 5651 5650 5650 5650 5650 5648 5648 5648 5650 5650 5651 5651 5652 5652 5652 5652 5653 5653 5654 5655
5602 5601 5600 5599 5600 5608 5622 5626 5623 5622 5629 5633 5634 5635 5635 5636 5638 5640 5640 5641 5641 5641 5643 5643 5642 5641 5642 5642 5641 5641 5641 5643 5643 5644 5645 5645 5645 5646 5647 5646 5647 5648 5648 5649
5593 5594 5593 5594 5597 5604 5608 5611 5613 5615 5618 5622 5624 5627 5627 5627 5628 5629 5630 5631 5632 5633 5634 5635 5634 5633 5633 5633 5633 5633 5634 5636 5636 5635 5636 5637 5638 5638 5640 5640 5641 5641 5642 5643
5587 5587 5586 5587 5593 5597 5600 5603 5605 5608 5609 5613 5616 5617 5618 5618 5619 5620 5620 5620 5622 5624 5625 5625 5625 5624 5624 5625 5625 5625 5626 5627 5626 5626 5627 5629 5629 5630 5632 5634 5635 5635 5636 5637
5577 5578 5577 5578 5585 5589 5593 5594 5597 5600 5602 5603 5606 5608 5609 5610 5610 5610 5610 5611 5613 5614 5615 5616 5615 5615 5615 5616 5616 5617 5617 5618 5617 5618 5619 5621 5622 5623 5624 5626 5628 5630 5631 5633
5568 5568 5569 5571 5577 5577 5582 5586 5589 5590 5592 5594 5596 5599 5600 5601 5601 5601 5602 5602 5603 5604 5605 5605 5605 5606 5606 5607 5608 5608 5609 5609 5609 5609 5611 5613 5614 5616 5617 5619 5621 5624 5626 5627